Вернуться в каталог

STARLINK-34544

АктивенСвязьSSO
NORAD 64865·PAYLOAD·🇺🇸 United States

Запущен Jul 19, 2025 с Vandenberg Space Force Base

Loading…

Ближайшие Пролёты (ближайшие 24 часа)

TLE

СвежийSource: CelesTrak SupGP

Эпоха: Sep 15, 2026, 03:04 UTC

1 64865C 25152Z   26258.12826389 -.00011581  00000+0 -35945-3 0  2580
2 64865  97.2850 108.7711 0001712  96.5889 181.5557 15.33450254    18

Отслеживайте STARLINK-34544 в реальном времени с AllMySat

Download on the App Store